Location: Cisewo
(53.3833°N, 14.9000°E)
Time: 11:22:13
(UTC+00:00)

Meteor 1-5 Rocket - Pass Details

Date: 18 April 2021
Orbit: 789 x 915 km, 81.2° (Epoch: 14 May)

Event Time Altitude Azimuth Distance (km) Brightness Sun altitude
Rises 23:38:43 0° 343° (NNW) 3,510 8.4 -24.9°
Reaches altitude 10° 23:41:16 10° 339° (NNW) 2,549 7.4 -24.8°
Maximum altitude 23:46:51 52° 265° (W) 1,068 4.5 -24.7°
Enters shadow 23:47:23 50° 246° (WSW) 1,088 4.5 -24.6°
